Weather History for Tyler, TX

Change the Weather History Date:

Saturday, March 23, 2013

  Actual Average Record
Temperature  
Mean Temperature 52 °F 58 °F  
Max Temperature 56 °F 68 °F 91 °F (1995)
Min Temperature 47 °F 48 °F 27 °F (1968)
Degree Days  
Heating Degree Days 13 8  
Month to date heating degree days 199 219  
Since 1 July heating degree days 1758 2111  
Cooling Degree Days 0 1  
Month to date cooling degree days 12 11  
Year to date cooling degree days 22 23  
Moisture  
Dew Point 50 °F    
Average Humidity 86    
Maximum Humidity 100    
Minimum Humidity 72    
Precipitation  
Precipitation 1.12 in 0.14 in 1.59 in (1912)
Month to date precipitation 1.71 3.17  
Year to date precipitation 7.15 10.04  
Snow  
Snow 0.00 in - - ()
Month to date snowfall 0.0  
Since 1 July snowfall 1.0  
Snow Depth 0.00 in    
Sea Level Pressure  
Sea Level Pressure 29.74 in    
Wind  
Wind Speed 7 mph (NNE)    
Max Wind Speed 23 mph    
Max Gust Speed 29 mph    
Visibility 5 miles    
Events Rain , Thunderstorm    
T = Trace of Precipitation, MM = Missing Value Source: NWS Daily Summary

Daily Weather History Graph

Daily Weather History Graph

Search for Another Location

Airport:

Trip Planner

Search our weather history database for the weather conditions in past years. The results will help you decide how hot, cold, wet, or windy it might be!

Date:

Astronomy

Mar. 23, 2013 Rise Set
Actual Time 7:21 AM CDT 7:35 PM CDT
Civil Twilight 6:56 AM CDT 8:00 PM CDT
Nautical Twilight 6:27 AM CDT 8:28 PM CDT
Astronomical Twilight 5:59 AM CDT 8:57 PM CDT
Moon 4:13 PM CDT 4:46 AM CDT
Length of Visible Light 13h 03m
Length of Day
12h 14m
Waxing Gibbous, 85% of the Moon is Illuminated
Mar 23
Waxing Gibbous
Mar 27
Full
Apr 2
Last Quarter
Apr 10
New
Apr 18
First Quarter

Hourly Weather History & Observations

Time (CDT) Temp. Windchill Dew Point Humidity Pressure Visibility Wind Dir Wind Speed Gust Speed Precip Events Conditions
12:53 AM 48.9 °F - 46.0 °F 90% 29.82 in 3.0 mi NNE 4.6 mph - N/A   Overcast
1:53 AM 48.0 °F - 46.0 °F 93% 29.80 in 1.8 mi NNE 8.1 mph - N/A   Overcast
2:53 AM 48.0 °F - 46.9 °F 96% 29.80 in 1.2 mi NNE 5.8 mph - N/A   Overcast
3:53 AM 48.0 °F - 46.9 °F 96% 29.77 in 1.2 mi NNE 5.8 mph - N/A   Overcast
4:06 AM 48.2 °F - 46.4 °F 93% 29.78 in 3.0 mi ENE 6.9 mph - N/A   Overcast
4:15 AM 48.2 °F - 46.4 °F 93% 29.78 in 2.0 mi NE 5.8 mph - N/A   Overcast
4:53 AM 48.0 °F - 46.9 °F 96% 29.78 in 2.0 mi NNE 5.8 mph - N/A   Overcast
5:51 AM 48.2 °F - 46.4 °F 93% 29.80 in 3.0 mi NNE 8.1 mph - N/A   Overcast
5:53 AM 48.0 °F - 46.0 °F 93% 29.79 in 3.0 mi North 8.1 mph - N/A   Overcast
6:01 AM 48.2 °F - 46.4 °F 93% 29.80 in 2.5 mi North 9.2 mph - N/A   Overcast
6:31 AM 48.2 °F - 46.4 °F 93% 29.82 in 3.0 mi NNE 6.9 mph - N/A   Overcast
6:53 AM 48.0 °F - 46.0 °F 93% 29.82 in 3.0 mi North 8.1 mph - N/A   Overcast
7:45 AM 46.4 °F 42.9 °F 46.4 °F 100% 29.84 in 2.0 mi NNE 6.9 mph - N/A   Overcast
7:53 AM 46.9 °F - 46.0 °F 97% 29.83 in 2.0 mi NE 6.9 mph - N/A   Overcast
8:23 AM 46.4 °F 41.9 °F 46.4 °F 100% 29.83 in 3.0 mi NNE 9.2 mph - N/A   Overcast
8:53 AM 48.0 °F - 46.0 °F 93% 29.82 in 5.0 mi East 8.1 mph - N/A   Overcast
9:53 AM 48.9 °F - 46.0 °F 90% 29.86 in 10.0 mi North 11.5 mph - N/A   Overcast
10:51 AM 51.8 °F - 46.4 °F 82% 29.81 in 10.0 mi ENE 9.2 mph - N/A   Overcast
10:53 AM 51.1 °F - 46.0 °F 83% 29.81 in 10.0 mi East 9.2 mph - N/A   Overcast
11:29 AM 53.6 °F - 46.4 °F 77% 29.79 in 10.0 mi East 10.4 mph - N/A   Overcast
11:53 AM 55.0 °F - 46.9 °F 74% 29.79 in 10.0 mi SE 9.2 mph - N/A   Overcast
12:39 PM 55.4 °F - 48.2 °F 77% 29.77 in 10.0 mi SE 8.1 mph - N/A Thunderstorm Overcast
12:53 PM 55.0 °F - 48.0 °F 77% 29.75 in 10.0 mi SSE 6.9 mph - N/A   Overcast
1:33 PM 55.4 °F - 48.2 °F 77% 29.73 in 10.0 mi SSE 5.8 mph - 0.00 in Rain , Thunderstorm Light Rain
1:53 PM 55.0 °F - 48.9 °F 80% 29.71 in 10.0 mi Calm Calm - 0.00 in Rain Light Rain
2:10 PM 53.6 °F - 51.8 °F 94% 29.72 in 9.0 mi NNW 8.1 mph - 0.01 in Rain , Thunderstorm Light Rain
2:27 PM 53.6 °F - 51.8 °F 94% 29.72 in 2.5 mi NNW 4.6 mph - 0.14 in Rain , Thunderstorm Heavy Rain
2:53 PM 53.1 °F - 51.1 °F 93% 29.70 in 1.8 mi Calm Calm - 0.32 in Rain , Thunderstorm Heavy Thunderstorms and Rain
3:01 PM 53.6 °F - 51.8 °F 94% 29.70 in 3.0 mi North 3.5 mph - 0.01 in Rain , Thunderstorm Light Rain
3:07 PM 53.6 °F - 51.8 °F 94% 29.70 in 3.0 mi Calm Calm - 0.05 in Rain , Thunderstorm Heavy Rain
3:15 PM 53.6 °F - 51.8 °F 94% 29.69 in 2.0 mi East 8.1 mph - 0.14 in Rain , Thunderstorm Heavy Rain
3:23 PM 53.6 °F - 51.8 °F 94% 29.69 in 1.0 mi NE 8.1 mph - 0.36 in Rain , Thunderstorm Heavy Thunderstorms and Rain
3:32 PM 53.6 °F - 51.8 °F 94% 29.69 in 2.0 mi Calm Calm - 0.39 in Rain , Thunderstorm Light Rain
3:40 PM 53.6 °F - 51.8 °F 94% 29.68 in 5.0 mi North 3.5 mph - 0.40 in Rain , Thunderstorm Light Rain
3:53 PM 54.0 °F - 52.0 °F 93% 29.69 in 9.0 mi Calm Calm - 0.40 in Rain , Thunderstorm Light Rain
4:03 PM 53.6 °F - 51.8 °F 94% 29.69 in 8.0 mi East 3.5 mph - 0.01 in Rain , Thunderstorm Light Thunderstorms and Rain
4:17 PM 53.6 °F - 51.8 °F 94% 29.70 in 5.0 mi WNW 6.9 mph - 0.02 in Rain , Thunderstorm Rain
4:34 PM 53.6 °F - 53.6 °F 100% 29.68 in 3.0 mi North 3.5 mph - 0.10 in Rain , Thunderstorm Rain
4:44 PM 53.6 °F - 53.6 °F 100% 29.67 in 2.5 mi NNE 6.9 mph - 0.17 in Rain , Thunderstorm Heavy Thunderstorms and Rain
4:53 PM 54.0 °F - 53.1 °F 97% 29.68 in 2.0 mi NNW 5.8 mph - 0.23 in Rain , Thunderstorm Heavy Thunderstorms and Rain
5:00 PM 55.4 °F - 53.6 °F 94% 29.68 in 3.0 mi North 8.1 mph - 0.03 in Rain , Thunderstorm Light Thunderstorms and Rain
5:44 PM 55.4 °F - 53.6 °F 94% 29.69 in 10.0 mi North 6.9 mph - 0.14 in Rain Light Rain
5:53 PM 55.0 °F - 53.1 °F 93% 29.69 in 10.0 mi North 3.5 mph - 0.14 in Rain Light Rain
6:45 PM 55.4 °F - 53.6 °F 94% 29.69 in 10.0 mi NNE 5.8 mph - 0.01 in   Overcast
6:53 PM 55.0 °F - 53.1 °F 93% 29.69 in 9.0 mi North 8.1 mph - 0.01 in   Overcast
7:53 PM 54.0 °F - 52.0 °F 93% 29.71 in 5.0 mi North 8.1 mph - 0.00 in Rain Light Rain
8:27 PM 53.6 °F - 51.8 °F 94% 29.70 in 6.0 mi NNE 4.6 mph - 0.00 in   Overcast
8:50 PM 53.6 °F - 51.8 °F 94% 29.71 in 5.0 mi NNE 5.8 mph - 0.00 in   Overcast
8:53 PM 53.1 °F - 51.1 °F 93% 29.70 in 5.0 mi NNE 5.8 mph - 0.00 in   Overcast
9:53 PM 53.1 °F - 51.1 °F 93% 29.71 in 5.0 mi NNE 4.6 mph - N/A   Overcast
10:53 PM 53.1 °F - 51.1 °F 93% 29.69 in 3.0 mi East 5.8 mph - N/A   Overcast
11:53 PM 53.1 °F - 51.1 °F 93% 29.65 in 6.0 mi ESE 6.9 mph - N/A   Overcast